"Pseudo-MPEC" for W07096

Created 2023 Nov 24 6:22:18 UT using Find_Orb

Click here for an explanation of pseudo-MPECs

 
 Astrometry: 
     W07096 * C2023 11 18Bvy9YaP\ePDfA*O,)-nXl:nGq(NPj`Lf:e!o\fEd1An:(QvcHjXoO18
     W07096   C2023 11 18a`DkQ^=qx]qyR-?x.*Astrometryc)RXredacted;1*Zbm(clickO18
     W07096   C2023 11 18RKwnfu9q41hhere2forn:fFG+x/i9Btexplanation$T@s\My3u?O18

Station data:
(O18) WFST, Lenghu  (N38.607601 E93.895220).

Orbital elements:  W07096
   Perihelion 2024 Mar 10.00091 +/- 125 TT =  0:01:18 (JD 2460379.50091)
Epoch 2023 Nov 19.0 TT = JDT 2460267.5   Earth MOID: 0.2706   Me: 0.0157
M 271.07230261 +/- 80               Ma: 0.0293                   AutoNEOCP
n   0.79399083 +/- 0.424            Peri.  151.28373 +/- 70
a   1.15502767 +/- 0.412            Node    58.00432 +/- 34
e   0.6368465 +/- 0.235             Incl.   33.38400 +/- 37
P   1.24/453.40d           H 21.92  G  0.15   U 12.2  SR
q 0.41945227 +/- 0.496    Q 1.89060307 +/- 19.3           (J2000 ecliptic)
From 3 observations 2023 Nov. 18 (18.8 min); mean residual 0".07
Residuals in arcseconds: 
231118 O18  .07-  .00     231118 O18  .14+  .00     231118 O18  .07-  .00     

Ephemerides (geocentric):
Date (UTC) HH   RA             Dec           delta  r     elong  mag " sig PA
---- --------  ------------   ------------  ------ ------ -----  --- --------
2023 11 24 06  03 45 01.591   +25 25 29.57  .50566 1.4914 174.3 21.7  31d 108
2023 11 24 07  03 44 48.328   +25 26 26.90  .50540 1.4911 174.3 21.7  31d 108
2023 11 24 08  03 44 35.049   +25 27 24.20  .50515 1.4908 174.2 21.7  31d 108
2023 11 24 09  03 44 21.754   +25 28 21.47  .50489 1.4905 174.1 21.7  31d 108
2023 11 24 10  03 44 08.443   +25 29 18.71  .50464 1.4902 174.1 21.7  31d 108
2023 11 24 11  03 43 55.115   +25 30 15.91  .50439 1.4899 174.0 21.7  31d 108
2023 11 24 12  03 43 41.771   +25 31 13.09  .50413 1.4896 174.0 21.7  31d 108
2023 11 24 13  03 43 28.411   +25 32 10.23  .50388 1.4893 173.9 21.7  31d 108
2023 11 24 14  03 43 15.035   +25 33 07.35  .50363 1.4890 173.9 21.7  31d 108
2023 11 24 15  03 43 01.643   +25 34 04.43  .50338 1.4887 173.8 21.7  31d 108
2023 11 24 16  03 42 48.234   +25 35 01.47  .50313 1.4885 173.8 21.7  31d 108
2023 11 24 17  03 42 34.810   +25 35 58.49  .50289 1.4882 173.7 21.7  31d 108
2023 11 24 18  03 42 21.370   +25 36 55.47  .50264 1.4879 173.6 21.7  31d 108
2023 11 24 19  03 42 07.914   +25 37 52.41  .50239 1.4876 173.6 21.7  31d 108
2023 11 24 20  03 41 54.441   +25 38 49.33  .50214 1.4873 173.5 21.7  31d 108
2023 11 24 21  03 41 40.953   +25 39 46.20  .50190 1.4870 173.4 21.7  31d 108
2023 11 24 22  03 41 27.449   +25 40 43.04  .50165 1.4867 173.4 21.7  31d 108
2023 11 24 23  03 41 13.929   +25 41 39.85  .50141 1.4864 173.3 21.7  31d 108
2023 11 25 00  03 41 00.394   +25 42 36.62  .50117 1.4861 173.3 21.7  31d 108
2023 11 25 01  03 40 46.842   +25 43 33.35  .50092 1.4858 173.2 21.7  31d 108
2023 11 25 02  03 40 33.275   +25 44 30.05  .50068 1.4855 173.1 21.7  32d 108
2023 11 25 03  03 40 19.692   +25 45 26.71  .50044 1.4852 173.1 21.7  32d 108
2023 11 25 04  03 40 06.093   +25 46 23.33  .50020 1.4849 173.0 21.7  32d 108
2023 11 25 05  03 39 52.479   +25 47 19.91  .49996 1.4846 172.9 21.7  32d 108
2023 11 25 06  03 39 38.849   +25 48 16.46  .49972 1.4843 172.8 21.7  32d 108
2023 11 25 07  03 39 25.203   +25 49 12.97  .49948 1.4840 172.8 21.7  32d 108
2023 11 25 08  03 39 11.542   +25 50 09.43  .49925 1.4837 172.7 21.7  32d 108
2023 11 25 09  03 38 57.866   +25 51 05.86  .49901 1.4834 172.6 21.7  32d 108
2023 11 25 10  03 38 44.173   +25 52 02.25  .49877 1.4831 172.6 21.7  32d 108
2023 11 25 11  03 38 30.466   +25 52 58.59  .49854 1.4828 172.5 21.7  32d 108
2023 11 25 12  03 38 16.743   +25 53 54.90  .49830 1.4826 172.4 21.7  32d 108
2023 11 25 13  03 38 03.004   +25 54 51.16  .49807 1.4823 172.4 21.7  32d 108
2023 11 25 14  03 37 49.250   +25 55 47.38  .49784 1.4820 172.3 21.7  32d 108
2023 11 25 15  03 37 35.481   +25 56 43.56  .49761 1.4817 172.2 21.7  32d 108
2023 11 25 16  03 37 21.697   +25 57 39.70  .49737 1.4814 172.1 21.7  32d 108
2023 11 25 17  03 37 07.897   +25 58 35.80  .49714 1.4811 172.1 21.7  33d 108
2023 11 25 18  03 36 54.082   +25 59 31.85  .49691 1.4808 172.0 21.7  33d 108
2023 11 25 19  03 36 40.252   +26 00 27.85  .49668 1.4805 171.9 21.7  33d 108
2023 11 25 20  03 36 26.406   +26 01 23.82  .49645 1.4802 171.8 21.7  33d 108
2023 11 25 21  03 36 12.546   +26 02 19.74  .49623 1.4799 171.8 21.7  33d 108
2023 11 25 22  03 35 58.670   +26 03 15.61  .49600 1.4796 171.7 21.7  33d 108
2023 11 25 23  03 35 44.779   +26 04 11.44  .49577 1.4793 171.6 21.7  33d 108
2023 11 26 00  03 35 30.874   +26 05 07.22  .49555 1.4790 171.5 21.7  33d 108
2023 11 26 01  03 35 16.953   +26 06 02.95  .49532 1.4787 171.4 21.7  33d 108
2023 11 26 02  03 35 03.018   +26 06 58.64  .49510 1.4784 171.4 21.7  33d 108
2023 11 26 03  03 34 49.067   +26 07 54.29  .49487 1.4781 171.3 21.7  33d 108
2023 11 26 04  03 34 35.102   +26 08 49.88  .49465 1.4778 171.2 21.7  33d 108
2023 11 26 05  03 34 21.121   +26 09 45.43  .49443 1.4775 171.1 21.7  33d 108